Regional Weather Roundup
Issued by NWS Lake Charles, LA

Home | Current Version | Previous Version | Text Only | Print | Product List | Glossary On
Versions: 1 2 3 4 5 6 7 8 9 10 11 12 13 14 15 16 17 18 19 20 21 22 23 24 25 26 27 28 29 30 31 32 33 34 35 36 37 38 39 40 41 42 43 44 45 46 47 48 49 50
000
ASUS44 KLCH 302110
RWRLCH
REGIONAL WEATHER ROUNDUP
NATIONAL WEATHER SERVICE LAKE CHARLES LA
400 PM CDT MON MAY 30 2016

Note: "fair" indicates few or no clouds below 12,000 feet with no
significant weather and/or obstructions to visibility.


ACROSS SOUTHEAST TEXAS

CITY           SKY/WX    TMP DP  RH WIND       PRES   REMARKS
BEAUMONT       CLOUDY    84  68  58 S6        29.95S
BEAUMONT CITY  FAIR      85  66  52 SE5       29.96S
ORANGE         MOCLDY    85  66  53 SW7       29.97F
JASPER         PTSUNNY   84  70  61 S3        29.97F
$$

ACROSS CENTRAL LOUISIANA

CITY           SKY/WX    TMP DP  RH WIND       PRES   REMARKS
LEESVILLE      MOSUNNY   87  69  55 SW7       29.94F
FULLERTON      NOT AVBL
ALEXANDRIA INT MOSUNNY   87  68  52 S8        29.92F
ESLER FIELD    MOSUNNY   91  70  49 S5        29.94F
DERIDDER       MOCLDY    87  67  50 E5        29.97F
OAKDALE        CLEAR     88  70  55 S3        29.94F
OPELOUSAS      FAIR      87  70  56 S3        29.94F
$$

ACROSS SOUTHWEST AND SOUTH CENTRAL LOUISIANA

CITY           SKY/WX    TMP DP  RH WIND       PRES   REMARKS
SULPHUR        PTCLDY    86  68  54 S9        29.96S
LAKE CHARLES   SUNNY     86  69  56 S8        29.94F
CHENNAULT INT  MOSUNNY  N/A N/A N/A SE6       29.93
CAMERON PHI    NOT AVBL
DEQUINCY       FAIR      86  69  57 S8        29.96S
JENNINGS       FAIR      84  72  65 S12       29.95F
LAFAYETTE      MOSUNNY   90  60  36 S9        29.95F
NEW IBERIA     SUNNY     88  69  53 S9        29.96F
ABBEVILLE      MOCLDY    87  73  62 S13       29.96F
PATTERSON      MOSUNNY   87  69  54 SW14      29.97F
SALT POINT       N/A     85  74  69 MISG      29.96F
$$

SELECTED SITES ACROSS THE REGION

CITY           SKY/WX    TMP DP  RH WIND       PRES   REMARKS
HOUSTON BUSH   PTSUNNY   84  68  58 CALM      29.94F
HOUSTON HOBBY  CLOUDY    86  71  60 E6        29.93S
GALVESTON      PTSUNNY   81  74  79 SE14      29.93F
COLLEGE STAT   SUNNY     86  64  47 CALM      29.93F
CONROE         CLOUDY    84  67  56 SE5       29.95F
HUNTSVILLE     MOSUNNY   86  69  56 VRB7      29.94F
LUFKIN         CLOUDY    84  68  58 S7        29.95F
SHREVEPORT     PTSUNNY   86  71  60 S9        29.94F
MONROE         CLOUDY    82  69  64 S10       29.96F
NATCHEZ MS     PTSUNNY   88  70  55 SW13      29.96S THUNDER
BATON ROUGE    CLOUDY    89  65  44 SE6       29.95F
N.O. INTL ARPT PTSUNNY   80  70  71 SW6       29.98F THUNDER
SLIDELL        CLOUDY    89  70  53 SW7       29.95F
$$

MARINE REPORTS

STATION/POSITION TIME  SKY/WX   TEMP    WIND        PRES    VSBY
                                AIR SEA DIR/SP/G
                 (UTC)          (F)     (DEG/KT/KT) (MB)    (MI)
BUOY 30 S HIGH I 2050            80 83  130/ 12/ 14 1013.3F
WVE H/P(F/S)=  2/ 6

SEA RIM ST PARK  2100            80     140/  8/ 10 1014.3F
PORT ARTHUR      2000               80  170/  7/ 12 1014.7F
SABINE PASS N    2000            81 82  140/ 12/ 17 1015.8F
TEXAS POINT      NOT AVBL
CALCASIEU PASS   2000            81 85  170/ 10/ 14 1013.9F
LK CHARLES BEACH 2000            87 78              1015.2F
MARSH ISLAND     2000            84                   N/A
FRESH WATER LOCK 2000            81 86  180/  9/ 14 1016.1F
AMERADA PASS     2000            83 82  210/  4/  8 1015.9F
$$



USA.gov is the U.S. government's official web portal to all federal, state and local government web resources and services.